Location: Larrial
(48.2758°N, 4.5331°W)
Time: 10:16:44
(UTC+00:00)

STARLINK-1270 - Pass Details

Date: 09 April 2020
Orbit: 378 x 381 km, 53.0° (Epoch: 26 May)

Event Time Altitude Azimuth Distance (km) Brightness Sun altitude
Rises 19:46:56 0° 296° (WNW) 2,263 9.3 -8.1°
Reaches altitude 10° 19:49:00 10° 297° (WNW) 1,406 7.4 -8.5°
Maximum altitude 19:52:09 83° 25° (NNE) 390 2.9 -8.9°
Enters shadow 19:54:45 14° 114° (ESE) 1,182 4.6 -9.3°
